Change the Weather History Date:

Friday, January 25, 2013

  Actual Average Record
Temperature  
Mean Temperature 24 °F -  
Max Temperature 28 °F 40 °F 57 °F (2005)
Min Temperature 21 °F 23 °F 6 °F (2000)
Degree Days  
Heating Degree Days 40    
Moisture  
Dew Point 18 °F    
Average Humidity 79    
Maximum Humidity 93    
Minimum Humidity 42    
Precipitation  
Precipitation 0.03 in - - ()
Sea Level Pressure  
Sea Level Pressure 30.17 in    
Wind  
Wind Speed 7 mph (SE)    
Max Wind Speed 12 mph    
Max Gust Speed -    
Visibility 7 miles    
Events Rain , Snow    
Averages and records for this station are not official NWS values.
T = Trace of Precipitation, MM = Missing Value Source: NWS Daily Summary

Daily Weather History Graph

Daily Weather History Graph

Search for Another Location

Airport or City:

Trip Planner

Search our weather history database for the weather conditions in past years. The results will help you decide how hot, cold, wet, or windy it might be!

Date:

Astronomy

Jan. 25, 2013 Rise Set
Actual Time 7:53 AM EST 5:59 PM EST
Civil Twilight 7:25 AM EST 6:27 PM EST
Nautical Twilight 6:53 AM EST 6:59 PM EST
Astronomical Twilight 6:22 AM EST 7:30 PM EST
Moon 4:56 PM EST (1/25) 6:32 AM EST (1/25)
Length of Visible Light 11h 02m
Length of Day
10h 06m
Waxing Gibbous, 98% of the Moon is Illuminated
Jan 25
Waxing Gibbous
Jan 26
Full
Feb 3
Last Quarter
Feb 10
New
Feb 17
First Quarter

Hourly Weather History & Observations

Time (EST) Temp. Windchill Dew Point Humidity Pressure Visibility Wind Dir Wind Speed Gust Speed Precip Events Conditions
12:55 AM 21.9 °F 12.5 °F 1.8 °F 42% 30.36 in 10.0 mi East 8.1 mph - N/A   Mostly Cloudy
1:55 AM 22.6 °F 12.6 °F 2.5 °F 42% 30.34 in 10.0 mi East 9.2 mph - N/A   Overcast
2:55 AM 23.2 °F 13.3 °F 3.2 °F 42% 30.30 in 10.0 mi East 9.2 mph - N/A   Overcast
3:55 AM 23.5 °F 13.0 °F 3.4 °F 42% 30.25 in 10.0 mi East 10.4 mph - N/A   Overcast
4:03 AM 23.0 °F 13.9 °F 5.0 °F 46% 30.24 in 10.0 mi East 8.1 mph - N/A Snow Light Snow
4:17 AM 23.0 °F 12.4 °F 8.6 °F 54% 30.24 in 10.0 mi East 10.4 mph - N/A   Overcast
4:55 AM 23.4 °F 14.3 °F 7.7 °F 51% 30.24 in 10.0 mi East 8.1 mph - 0.00 in   Overcast
5:03 AM 23.0 °F 13.9 °F 6.8 °F 50% 30.23 in 10.0 mi East 8.1 mph - N/A Snow Light Snow
5:43 AM 23.0 °F 14.7 °F 12.2 °F 63% 30.21 in 10.0 mi ENE 6.9 mph - N/A   Overcast
5:55 AM 23.0 °F 13.9 °F 11.5 °F 61% 30.20 in 10.0 mi ENE 8.1 mph - 0.00 in   Overcast
6:10 AM 23.0 °F 11.7 °F 10.4 °F 59% 30.19 in 10.0 mi East 11.5 mph - N/A Snow Light Snow
6:31 AM 23.0 °F 12.4 °F 14.0 °F 68% 30.17 in 10.0 mi East 10.4 mph - N/A   Overcast
6:37 AM 23.0 °F 13.1 °F 14.0 °F 68% 30.17 in 10.0 mi East 9.2 mph - N/A   Overcast
6:46 AM 23.0 °F 13.9 °F 14.0 °F 68% 30.16 in 10.0 mi East 8.1 mph - N/A   Overcast
6:47 AM 23.0 °F 13.1 °F 14.0 °F 68% 30.16 in 10.0 mi East 9.2 mph - N/A   Overcast
6:55 AM 22.6 °F 13.4 °F 13.3 °F 67% 30.17 in 10.0 mi East 8.1 mph - 0.00 in   Overcast
7:21 AM 23.0 °F 13.1 °F 15.8 °F 74% 30.12 in 4.0 mi East 9.2 mph - N/A Rain Light Freezing Rain
7:32 AM 23.0 °F 13.9 °F 17.6 °F 80% 30.12 in 2.0 mi East 8.1 mph - N/A Rain Light Freezing Rain
7:55 AM 22.6 °F 14.3 °F 18.9 °F 85% 30.15 in 2.0 mi East 6.9 mph - 0.01 in Rain , Snow Light Freezing Rain
8:10 AM 23.0 °F 15.8 °F 19.4 °F 86% 30.09 in 4.0 mi ESE 5.8 mph - N/A Rain Light Freezing Rain
8:48 AM 23.0 °F - 19.4 °F 86% 30.10 in 7.0 mi East 2.3 mph - N/A   Overcast
8:55 AM 22.5 °F 16.3 °F 19.2 °F 87% 30.14 in 7.0 mi ENE 4.6 mph - 0.00 in   Overcast
9:03 AM 23.0 °F 18.4 °F 19.4 °F 86% 30.11 in 3.0 mi NE 3.5 mph - N/A   Light Freezing Drizzle
9:22 AM 23.0 °F 18.4 °F 19.4 °F 86% 30.10 in 1.5 mi NE 3.5 mph - N/A   Light Freezing Drizzle
9:55 AM 22.5 °F 17.8 °F 20.1 °F 91% 30.14 in 1.5 mi East 3.5 mph - 0.01 in   Light Freezing Drizzle
10:28 AM 23.0 °F 18.4 °F 21.2 °F 93% 30.09 in 2.0 mi SE 3.5 mph - N/A   Overcast
10:55 AM 23.2 °F - 21.4 °F 93% 30.14 in 2.0 mi Calm Calm - 0.00 in   Overcast
11:55 AM 24.8 °F 20.5 °F 23.0 °F 93% 30.14 in 3.0 mi WSW 3.5 mph - 0.01 in   Overcast
12:23 PM 24.8 °F 17.9 °F 23.0 °F 93% 30.10 in 3.0 mi West 5.8 mph - N/A Snow Light Snow
12:47 PM 26.6 °F 20.0 °F 24.8 °F 93% 30.09 in 2.0 mi West 5.8 mph - N/A Snow Light Snow
12:55 PM 26.1 °F 19.4 °F 24.3 °F 93% 30.13 in 2.0 mi West 5.8 mph - 0.00 in Snow Light Snow
1:55 PM 27.5 °F 19.3 °F 25.5 °F 92% 30.11 in 3.0 mi West 8.1 mph - 0.00 in   Overcast
2:27 PM 28.4 °F 21.2 °F 24.8 °F 86% 30.05 in 4.0 mi West 6.9 mph - N/A   Overcast
2:55 PM 28.0 °F 20.8 °F 24.4 °F 86% 30.10 in 10.0 mi West 6.9 mph - N/A   Overcast
3:55 PM 27.9 °F 19.1 °F 24.4 °F 87% 30.12 in 7.0 mi West 9.2 mph - N/A   Overcast
4:55 PM 27.7 °F 22.4 °F 24.1 °F 86% 30.13 in 7.0 mi WSW 4.6 mph - N/A   Overcast
5:38 PM 28.4 °F 23.3 °F 24.8 °F 86% 30.10 in 7.0 mi SW 4.6 mph - N/A   Overcast
5:55 PM 27.0 °F 21.6 °F 23.9 °F 88% 30.14 in 10.0 mi SW 4.6 mph - N/A   Mostly Cloudy
6:55 PM 25.3 °F 19.7 °F 22.5 °F 89% 30.16 in 10.0 mi SW 4.6 mph - N/A   Scattered Clouds
7:55 PM 23.5 °F 17.6 °F 21.4 °F 91% 30.17 in 10.0 mi SSW 4.6 mph - N/A   Clear
8:55 PM 23.7 °F 16.6 °F 21.4 °F 91% 30.18 in 10.0 mi SSW 5.8 mph - N/A   Clear
9:55 PM 23.2 °F 18.7 °F 21.2 °F 92% 30.19 in 10.0 mi SSW 3.5 mph - N/A   Clear
10:55 PM 22.5 °F 15.1 °F 20.7 °F 93% 30.20 in 8.0 mi South 5.8 mph - N/A   Clear
11:17 PM 23.0 °F 15.8 °F 21.2 °F 93% 30.20 in 7.0 mi SSW 5.8 mph - N/A   Partly Cloudy
11:29 PM 23.0 °F 15.8 °F 21.2 °F 93% 30.20 in 7.0 mi SSW 5.8 mph - N/A   Mostly Cloudy
11:30 PM 23.0 °F 15.8 °F 21.2 °F 93% 30.20 in 7.0 mi SSW 5.8 mph - N/A   Mostly Cloudy
11:37 PM 23.0 °F 15.8 °F 21.2 °F 93% 30.21 in 6.0 mi SSW 5.8 mph - N/A   Mostly Cloudy
11:51 PM 23.0 °F 15.8 °F 21.2 °F 93% 30.21 in 6.0 mi South 5.8 mph - N/A   Mostly Cloudy
11:55 PM 23.4 °F 16.2 °F 21.6 °F 93% 30.21 in 6.0 mi South 5.8 mph - N/A   Mostly Cloudy
11:58 PM 23.0 °F 15.8 °F 21.2 °F 93% 30.21 in 6.0 mi SSW 5.8 mph - N/A   Mostly Cloudy